Regional Weather Roundup
Issued by NWS

Home | Current Version | Previous Version | Graphics & Text | Print | Product List | Glossary On
Versions: 1 2 3 4 5 6 7 8 9 10 11 12 13 14 15 16 17 18 19 20 21 22 23 24 25 26 27 28 29 30 31 32 33 34 35 36 37 38 39 40 41 42 43 44 45 46 47 48 49 50
000
ASUS45 KCYS 092310
RWRWY

WYOMING REGIONAL WEATHER ROUNDUP
NATIONAL WEATHER SERVICE CHEYENNE WY
400 PM MST TUE FEB 09 2016

NOTE:  "FAIR" INDICATES FEW OR NO CLOUDS BELOW 12,000 FEET
WITH NO SIGNIFICANT WEATHER AND/OR OBSTRUCTIONS TO VISIBILITY.

WYZ001-100000-
YELLOWSTONE NATIONAL PARK

CITY           SKY/WX    TMP DP  RH WIND       PRES   REMARKS
LK YELLOWSTONE   N/A     32  20  61 CALM      30.47S
W YELLOWSTONE  NOT AVBL

$$
WYZ002>013-054>058-071-098>099-100000-
NORTHERN WYOMING

CITY           SKY/WX    TMP DP  RH WIND       PRES   REMARKS
JACKSON        SUNNY     25  21  86 CALM      30.48F
CODY           FAIR      54  27  35 NE7       30.25S
GREYBULL       FAIR      50  27  40 S6        30.26F
WORLAND        FAIR      47  28  47 NE3       30.27S
SHERIDAN       FAIR      59  26  28 N10       30.18F
BUFFALO        FAIR      55  27  34 W5        30.22S
GILLETTE       FAIR      52  29  41 W12       30.18F
HULETT         FAIR      50  30  46 W10G16    30.17R
NEWCASTLE      FAIR      50  27  40 NW16      30.17S

$$
WYZ014>020-022>026-101>103-100000-
CENTRAL WYOMING

CITY           SKY/WX    TMP DP  RH WIND       PRES   REMARKS
BIG PINEY      FAIR      45  28  51 S3        30.41S
PINEDALE       MOCLDY    41  27  56 NW12      30.40R
DUBOIS         FAIR      52   7  16 W22G28    30.36R
LANDER         FAIR      39  22  50 CALM      30.30F
RIVERTON         N/A     40  22  48 MISG      30.33S
CASPER         FAIR      38  25  59 SW22      30.28F WCI  27
DOUGLAS        FAIR      46  29  51 NW10        N/A

$$
WYZ021-027>030-104>119-100000-
SOUTHERN WYOMING

CITY           SKY/WX    TMP DP  RH WIND       PRES   REMARKS
EVANSTON       FAIR      38  23  55 S3        30.47S
KEMMERER       FAIR      34  27  75 W16       30.45R WCI  23
FORT BRIDGER   CLEAR     41  28  60 W17       30.47R
ROCK SPRINGS   FAIR      39  27  62 W20       30.41S WCI  29
DIXON          FAIR      33  22  62 CALM      30.49R
RAWLINS        FAIR      36  24  62 SW16G25   30.39F WCI  26
SARATOGA       FAIR      34  23  64 S12       30.42S WCI  25
LARAMIE        FAIR      43  21  41 NW15      30.32S
CHEYENNE       FAIR      46  23  40 NW20G30   30.27S
TORRINGTON     FAIR      51  27  39 NW13      30.19F
PINE BLUFFS    FAIR      45  28  53 NW16G24   30.26S

$$



USA.gov is the U.S. government's official web portal to all federal, state and local government web resources and services.